{"data":{"norad_id":58971,"epoch":"2026-09-20T23:00:18.436608Z","epoch_age_seconds":115878,"freshness":"FRESH","line1":"1 58971U 24031G   26263.95854672 -.00000669  00000+0 -86762-5 0  9991","line2":"2 58971  53.1570  95.2128 0001028  73.4159 286.6956 15.34398336146637","mean_motion":15.34398336,"eccentricity":0.0001028,"inclination_deg":53.157,"raan_deg":95.2128,"arg_perigee_deg":73.4159,"mean_anomaly_deg":286.6956,"bstar":-8.6762e-6,"rev_number":14663,"period_min":93.847859855865,"perigee_km":462.00494708513,"apogee_km":463.41142485537,"semimajor_km":6840.8451859702,"source":"CELESTRAK","updated_at":"2026-09-21T09:00:34.019751Z"}}